When you browse on this site, cookies collect data to enhance your experience and personalize the content and advertising you see.
Visit our Privacy Policy to learn more. By continuing to use the site, you agree to this use of cookies and data.
  • In Hungary
  • List of Countries
  • For 7 days
  • Water Temperature
  • Satellite Maps
  • Weather Map
  • News
  • Weather Widgets
  • user-avatar
    Login

    Hourly Weather Manresa

    Today, 23 January, Wednesday

    Time Temperature Precipitation Wind Pressure Humidity
    00:00 +2°C° 0 mm 2 mps 725 mmHg 64%
    01:00 +1°C° 0 mm 2 mps 724 mmHg 67%
    02:00 +1°C° 0 mm 2 mps 724 mmHg 70%
    03:00 +1°C° 0 mm 2 mps 723 mmHg 72%
    04:00 +1°C° 0 mm 2 mps 723 mmHg 74%
    05:00 +1°C° 0 mm 2 mps 722 mmHg 75%
    06:00 +2°C° 0 mm 2 mps 721 mmHg 76%
    07:00 +2°C° 0.2 mm 2 mps 721 mmHg 78%
    08:00 +3°C° 0.2 mm 2 mps 720 mmHg 79%
    09:00 +4°C° 0.2 mm 2 mps 719 mmHg 80%
    10:00 +5°C° 0.1 mm 2 mps 719 mmHg 76%
    11:00 +5°C° 0.1 mm 3 mps 719 mmHg 72%
    12:00 +8°C° 0.1 mm 3 mps 719 mmHg 68%
    13:00 +9°C° 0 mm 3 mps 719 mmHg 63%
    14:00 +8°C° 0 mm 4 mps 719 mmHg 59%
    15:00 +9°C° 0 mm 5 mps 719 mmHg 54%
    16:00 +7°C° 0 mm 4 mps 719 mmHg 58%
    17:00 +6°C° 0 mm 4 mps 720 mmHg 63%
    18:00 +4°C° 0 mm 3 mps 720 mmHg 68%
    19:00 +3°C° 0 mm 3 mps 720 mmHg 70%
    20:00 +3°C° 0 mm 3 mps 721 mmHg 72%
    21:00 +2°C° 0 mm 3 mps 722 mmHg 74%
    22:00 +2°C° 0 mm 3 mps 722 mmHg 71%
    23:00 +1°C° 0 mm 4 mps 722 mmHg 67%

    Tomorrow, 24 January, Thursday

    Time Temperature Precipitation Wind Pressure Humidity
    00:00 0°C° 0 mm 4 mps 723 mmHg 64%
    01:00 0°C° 0 mm 5 mps 723 mmHg 58%
    02:00 0°C° 0 mm 5 mps 723 mmHg 53%
    03:00 -2°C° 0 mm 6 mps 724 mmHg 47%
    04:00 -2°C° 0 mm 6 mps 724 mmHg 46%
    05:00 -2°C° 0 mm 7 mps 724 mmHg 44%
    06:00 -2°C° 0 mm 8 mps 724 mmHg 43%
    07:00 0°C° 0 mm 8 mps 725 mmHg 40%
    08:00 +1°C° 0 mm 8 mps 726 mmHg 38%
    09:00 +2°C° 0 mm 8 mps 726 mmHg 35%
    10:00 +4°C° 0 mm 8 mps 727 mmHg 32%
    11:00 +5°C° 0 mm 8 mps 727 mmHg 29%
    12:00 +6°C° 0 mm 7 mps 727 mmHg 25%
    13:00 +7°C° 0 mm 6 mps 728 mmHg 26%
    14:00 +7°C° 0 mm 5 mps 728 mmHg 27%
    15:00 +7°C° 0 mm 4 mps 728 mmHg 28%
    16:00 +5°C° 0 mm 3 mps 728 mmHg 34%
    17:00 +3°C° 0 mm 3 mps 729 mmHg 41%
    18:00 +2°C° 0 mm 2 mps 729 mmHg 47%
    19:00 +1°C° 0 mm 2 mps 730 mmHg 49%
    20:00 +1°C° 0 mm 2 mps 730 mmHg 52%
    21:00 -1°C° 0 mm 2 mps 731 mmHg 54%
    22:00 -1°C° 0 mm 2 mps 731 mmHg 53%
    23:00 -2°C° 0 mm 2 mps 731 mmHg 53%

    Day after tomorrow, 25 January, Friday

    Time Temperature Precipitation Wind Pressure Humidity
    00:00 -2°C° 0 mm 2 mps 731 mmHg 52%
    01:00 -2°C° 0 mm 2 mps 731 mmHg 50%
    02:00 -2°C° 0 mm 2 mps 731 mmHg 48%
    03:00 -2°C° 0 mm 2 mps 731 mmHg 46%
    04:00 -2°C° 0 mm 3 mps 731 mmHg 46%
    05:00 -2°C° 0 mm 3 mps 731 mmHg 46%
    06:00 -2°C° 0 mm 3 mps 731 mmHg 45%
    07:00 0°C° 0 mm 3 mps 731 mmHg 43%
    08:00 +1°C° 0 mm 3 mps 731 mmHg 41%
    09:00 +2°C° 0 mm 3 mps 731 mmHg 39%
    10:00 +5°C° 0 mm 3 mps 731 mmHg 39%
    11:00 +8°C° 0 mm 3 mps 731 mmHg 39%
    12:00 +11°C° 0 mm 3 mps 731 mmHg 39%
    13:00 +12°C° 0 mm 3 mps 731 mmHg 40%
    14:00 +13°C° 0 mm 2 mps 730 mmHg 42%
    15:00 +14°C° 0 mm 2 mps 730 mmHg 43%
    16:00 +12°C° 0 mm 2 mps 730 mmHg 51%
    17:00 +9°C° 0 mm 1 mps 731 mmHg 59%
    18:00 +7°C° 0 mm 1 mps 731 mmHg 67%
    19:00 +6°C° 0 mm 1 mps 731 mmHg 69%
    20:00 +6°C° 0 mm 1 mps 732 mmHg 71%
    21:00 +4°C° 0 mm 0 mps 732 mmHg 73%
    22:00 +5°C° 0 mm 1 mps 733 mmHg 74%
    23:00 +5°C° 0 mm 1 mps 733 mmHg 76%

    26 January, Saturday

    Time Temperature Precipitation Wind Pressure Humidity
    00:00 +4°C° 0 mm 1 mps 733 mmHg 77%
    01:00 +4°C° 0 mm 1 mps 733 mmHg 77%
    02:00 +3°C° 0 mm 2 mps 733 mmHg 76%
    03:00 +3°C° 0 mm 2 mps 733 mmHg 76%
    04:00 +3°C° 0 mm 2 mps 734 mmHg 76%
    05:00 +3°C° 0 mm 2 mps 734 mmHg 75%
    06:00 +3°C° 0 mm 2 mps 734 mmHg 75%
    07:00 +4°C° 0 mm 2 mps 735 mmHg 70%
    08:00 +7°C° 0 mm 1 mps 735 mmHg 65%
    09:00 +8°C° 0 mm 1 mps 735 mmHg 60%
    10:00 +9°C° 0 mm 1 mps 735 mmHg 56%
    11:00 +11°C° 0 mm 1 mps 735 mmHg 52%
    12:00 +13°C° 0 mm 2 mps 735 mmHg 48%
    13:00 +13°C° 0 mm 2 mps 734 mmHg 48%
    14:00 +13°C° 0 mm 1 mps 734 mmHg 48%
    15:00 +13°C° 0 mm 1 mps 733 mmHg 49%
    16:00 +12°C° 0 mm 1 mps 733 mmHg 56%
    17:00 +10°C° 0 mm 1 mps 733 mmHg 64%
    18:00 +7°C° 0 mm 0 mps 733 mmHg 71%
    19:00 +6°C° 0 mm 0 mps 733 mmHg 74%
    20:00 +7°C° 0 mm 1 mps 733 mmHg 76%
    21:00 +6°C° 0 mm 1 mps 733 mmHg 79%
    22:00 +6°C° 0 mm 1 mps 732 mmHg 80%
    23:00 +6°C° 0 mm 1 mps 732 mmHg 82%

    27 January, Sunday

    Time Temperature Precipitation Wind Pressure Humidity
    00:00 +5°C° 0 mm 1 mps 731 mmHg 83%
    01:00 +5°C° 0 mm 1 mps 731 mmHg 82%
    02:00 +5°C° 0 mm 1 mps 730 mmHg 80%
    03:00 +5°C° 0 mm 1 mps 729 mmHg 79%
    04:00 +4°C° 0 mm 1 mps 729 mmHg 79%
    05:00 +4°C° 0 mm 1 mps 729 mmHg 79%
    06:00 +4°C° 0 mm 1 mps 729 mmHg 78%
    07:00 +5°C° 0 mm 1 mps 729 mmHg 73%
    08:00 +6°C° 0 mm 1 mps 729 mmHg 67%
    09:00 +7°C° 0 mm 1 mps 730 mmHg 62%
    10:00 +8°C° 0 mm 2 mps 730 mmHg 52%
    11:00 +10°C° 0 mm 4 mps 730 mmHg 42%
    12:00 +12°C° 0 mm 5 mps 730 mmHg 33%
    13:00 +10°C° 0 mm 5 mps 729 mmHg 32%
    14:00 +10°C° 0 mm 6 mps 729 mmHg 32%
    15:00 +10°C° 0 mm 6 mps 729 mmHg 32%
    16:00 +8°C° 0 mm 5 mps 729 mmHg 34%
    17:00 +6°C° 0 mm 5 mps 729 mmHg 36%
    18:00 +4°C° 0 mm 4 mps 729 mmHg 38%
    19:00 +4°C° 0 mm 4 mps 730 mmHg 41%
    20:00 +3°C° 0 mm 4 mps 730 mmHg 44%
    21:00 +3°C° 0 mm 4 mps 730 mmHg 47%
    22:00 +3°C° 0 mm 4 mps 730 mmHg 49%
    23:00 +1°C° 0 mm 4 mps 730 mmHg 51%

    28 January, Monday

    Time Temperature Precipitation Wind Pressure Humidity
    00:00 +1°C° 0 mm 4 mps 730 mmHg 54%
    01:00 +1°C° 0 mm 4 mps 729 mmHg 56%
    02:00 +1°C° 0 mm 4 mps 729 mmHg 58%
    03:00 0°C° 0 mm 5 mps 729 mmHg 61%
    04:00 0°C° 0 mm 5 mps 728 mmHg 60%
    05:00 0°C° 0 mm 4 mps 728 mmHg 59%
    06:00 -1°C° 0 mm 4 mps 728 mmHg 58%
    07:00 +1°C° 0 mm 5 mps 728 mmHg 51%
    08:00 +2°C° 0 mm 6 mps 729 mmHg 45%
    09:00 +3°C° 0 mm 7 mps 729 mmHg 38%
    10:00 +4°C° 0 mm 7 mps 729 mmHg 34%
    11:00 +5°C° 0 mm 7 mps 729 mmHg 30%
    12:00 +6°C° 0 mm 8 mps 729 mmHg 25%
    13:00 +6°C° 0 mm 7 mps 729 mmHg 26%
    14:00 +6°C° 0 mm 7 mps 728 mmHg 26%
    15:00 +5°C° 0 mm 6 mps 728 mmHg 26%
    16:00 +4°C° 0 mm 6 mps 729 mmHg 30%
    17:00 +2°C° 0 mm 5 mps 729 mmHg 35%
    18:00 +1°C° 0 mm 4 mps 729 mmHg 39%
    19:00 0°C° 0 mm 4 mps 730 mmHg 41%
    20:00 -1°C° 0 mm 4 mps 730 mmHg 43%
    21:00 0°C° 0 mm 3 mps 731 mmHg 45%
    22:00 0°C° 0 mm 3 mps 731 mmHg 46%
    23:00 0°C° 0 mm 3 mps 731 mmHg 46%
    Show more